TIANMU-1 04

Last updated on Sun Jul 26 2026 00:02:46 GMT+0000 (Coordinated Universal Time)

1 55974U 23039B 26206.62026681 .00014805 00000+0 27587-3 0 9993 2 55974 97.5182 21.2856 0002033 328.2988 31.8140 15.48934334186798
UTC large
Height (km)
Speed (km/s)
/
Latitude / Longitude
Inclination (degrees)
Orbital Period (minutes)
Azimuth
Elevation
Range (km)
Doppler Factor

Next 0 passes for location: London (51.5072 / 0.1276)

No passes found over London.
TIANMU-1 04